Volver al catálogo

STARLINK-4018

ActivoComunicacionesVLEO
NORAD 52697·PAYLOAD·🇺🇸 United States

Lanzado May 18, 2022 desde Cape Canaveral Space Force Station

Loading…

Próximos Pases (próximas 24 horas)

TLE

ActualizadoSource: CelesTrak SupGP

Época: Sep 14, 2026, 22:08 UTC

1 52697C 22053AT  26257.92270833 -.00021534  00000+0 -61618-3 0  2575
2 52697  53.1593  14.0142 0001021  71.1396 101.6861 15.35405291    19

Sigue STARLINK-4018 en tiempo real con AllMySat

Download on the App Store